Regional Weather Roundup
Issued by NWS

Home | Current Version | Previous Version | Graphics & Text | Print | Product List | Glossary Off
Versions: 1 2 3 4 5 6 7 8 9 10 11 12 13 14 15 16 17 18 19 20 21 22 23 24 25 26 27 28 29 30 31 32 33 34 35 36 37 38 39 40 41 42 43 44 45 46 47 48 49 50

000
ASUS43 KTOP 262108
RWRKS

WEATHER ROUNDUP FOR KANSAS
NATIONAL WEATHER SERVICE GOODLAND KS
400 PM CDT THU MAY 26 2016

NOTE:  "FAIR" INDICATES FEW OR NO CLOUDS BELOW 12,000 FEET WITH NO
SIGNIFICANT WEATHER AND/OR OBSTRUCTIONS TO VISIBILITY.

KSZ001>006-013>018-027>032-041>047-262200-
NORTHWEST KANSAS

CITY           SKY/WX    TMP DP  RH WIND       PRES   REMARKS
HAYS           CLOUDY    57  50  77 E21       29.73F
HILL CITY      CLOUDY    73  67  81 NE9       29.71F
RUSSELL        TSTM      63  59  87 NW8       29.79R
$$

KSZ061>065-074>080-084>089-262200-
SOUTHWEST KANSAS

CITY           SKY/WX    TMP DP  RH WIND       PRES   REMARKS
DODGE CITY     CLOUDY    69  62  78 E20G29    29.71R
ELKHART          N/A     85  45  24 SE10        N/A
GARDEN CITY    SUNNY     85  50  29 VRB7      29.68R
GREAT BEND     CLOUDY    70  55  60 SE14G26   29.75F THUNDER
LIBERAL        SUNNY     90  45  20 SW21G26   29.68F
PRATT          TSTM      65  59  80 CALM      29.75R
$$

KSZ066>073-081>083-090>101-262200-
SOUTHEAST KANSAS

CITY           SKY/WX    TMP DP  RH WIND       PRES   REMARKS
CHANUTE        CLOUDY    83  72  69 S21       29.76F
COFFEYVILLE    PTSUNNY   83  74  74 S17G25    29.76F
HUTCHINSON     CLOUDY    71  64  78 E12       29.72S
MEDICINE LODGE   N/A     80  69  69 S7        29.70R
NEWTON         CLOUDY    72  64  78 NE6       29.77F
PARSONS        PTSUNNY   82  74  76 S14G25    29.78F
WICHITA INTL   CLOUDY    80  70  71 E7        29.73R
WICHITA JABRA  CLOUDY    76  68  76 MISG      29.74R
WICHITA MCCONL MOSUNNY   78  71  76 SE7       29.73S
WINFIELD       MOSUNNY   85  72  65 S22G32    29.73F
$$

KSZ007>012-019>026-033>040-048>060-102>105-262200-
NORTHEAST KANSAS

CITY           SKY/WX    TMP DP  RH WIND       PRES   REMARKS
CONCORDIA      CLOUDY    76  68  76 S20G30    29.72R
EMPORIA        TSTM      67  63  87 SE9       29.78R
LAWRENCE       CLOUDY    68  60  75 N5G17     29.76S THUNDER
MANHATTAN      TSTM      63  61  93 CALM      29.83R FOG
MARYSVILLE     CLOUDY    73  70  88 SE16G32   29.67F
OLATHE IND     CLOUDY    82  73  74 S10       29.78F
OLATHE EXE     CLOUDY    79  71  76 SE10      29.78R
SALINA         CLOUDY    71  60  68 S14       29.74R
TOPEKA BILLARD TSTM      65  61  87 E7        29.79R
TOPEKA FORBES  CLOUDY    70  64  81 NE3       29.77R
$$




USA.gov is the U.S. government's official web portal to all federal, state and local government web resources and services.